Weather History for KSOP - February, 2014

Change the Weather History Date:

Thursday, February 27, 2014

  Actual Average Record
Temperature  
Mean Temperature 38 °F -  
Max Temperature 55 °F 56 °F 82 °F (1997)
Min Temperature 21 °F 35 °F 17 °F (2006)
Degree Days  
Heating Degree Days 27    
Moisture  
Dew Point 16 °F    
Average Humidity 46    
Maximum Humidity 86    
Minimum Humidity 21    
Precipitation  
Precipitation 0.00 in - - ()
Sea Level Pressure  
Sea Level Pressure 29.85 in    
Wind  
Wind Speed 3 mph (WSW)    
Max Wind Speed 15 mph    
Max Gust Speed 21 mph    
Visibility 10 miles    
Events      
Averages and records for this station are not official NWS values.
T = Trace of Precipitation, MM = Missing Value Source: NWS Daily Summary

Daily Weather History Graph

Daily Weather History Graph

Search for Another Location

Airport or City:

Trip Planner

Search our weather history database for the weather conditions in past years. The results will help you decide how hot, cold, wet, or windy it might be!

Date:

Astronomy

Feb. 27, 2014 Rise Set
Actual Time 6:49 AM EST 6:11 PM EST
Civil Twilight 6:24 AM EST 6:36 PM EST
Nautical Twilight 5:54 AM EST 7:06 PM EST
Astronomical Twilight 5:25 AM EST 7:35 PM EST
Moon 5:18 AM EST (2/27) 4:36 PM EST (2/27)
Length of Visible Light 12h 12m
Length of Day
11h 21m
Waning Crescent, 4% of the Moon is Illuminated
Feb 27
Waning Crescent
Mar 1
New
Mar 8
First Quarter
Mar 16
Full
Mar 23
Last Quarter

Hourly Weather History & Observations

Time (EST) Temp. Windchill Dew Point Humidity Pressure Visibility Wind Dir Wind Speed Gust Speed Precip Events Conditions
12:15 AM 24.8 °F - 19.4 °F 80% 29.85 in 10.0 mi Calm Calm - N/A   Clear
12:35 AM 26.6 °F - 21.2 °F 80% 29.85 in 10.0 mi Calm Calm - N/A   Clear
12:55 AM 26.6 °F - 19.4 °F 74% 29.85 in 10.0 mi Calm Calm - N/A   Clear
1:15 AM 24.8 °F - 17.6 °F 74% 29.85 in 10.0 mi Calm Calm - N/A   Clear
1:35 AM 26.6 °F - 19.4 °F 74% 29.85 in 10.0 mi Calm Calm - N/A   Clear
1:55 AM 24.8 °F - 17.6 °F 74% 29.85 in 10.0 mi Calm Calm - N/A   Clear
2:15 AM 24.8 °F - 17.6 °F 74% 29.84 in 10.0 mi Calm Calm - N/A   Clear
2:35 AM 24.8 °F - 19.4 °F 80% 29.84 in 10.0 mi Calm Calm - N/A   Clear
2:55 AM 24.8 °F - 17.6 °F 74% 29.84 in 10.0 mi Calm Calm - N/A   Clear
3:15 AM 24.8 °F - 15.8 °F 69% 29.84 in 10.0 mi Calm Calm - N/A   Clear
3:35 AM 23.0 °F - 15.8 °F 74% 29.83 in 10.0 mi Calm Calm - N/A   Clear
3:55 AM 24.8 °F - 15.8 °F 69% 29.84 in 10.0 mi Calm Calm - N/A   Clear
4:15 AM 23.0 °F - 15.8 °F 74% 29.83 in 10.0 mi Calm Calm - N/A   Clear
4:35 AM 24.8 °F - 14.0 °F 64% 29.83 in 10.0 mi Calm Calm - N/A   Clear
4:55 AM 21.2 °F - 15.8 °F 80% 29.84 in 10.0 mi Calm Calm - N/A   Clear
5:15 AM 23.0 °F - 15.8 °F 74% 29.84 in 10.0 mi Calm Calm - N/A   Clear
5:35 AM 21.2 °F - 15.8 °F 80% 29.85 in 10.0 mi Calm Calm - N/A   Clear
5:55 AM 21.2 °F - 15.8 °F 80% 29.85 in 10.0 mi Calm Calm - N/A   Clear
6:15 AM 23.0 °F - 15.8 °F 74% 29.85 in 10.0 mi Calm Calm - N/A   Mostly Cloudy
6:35 AM 23.0 °F - 15.8 °F 74% 29.84 in 10.0 mi Calm Calm - N/A   Scattered Clouds
6:55 AM 21.2 °F - 17.6 °F 86% 29.84 in 10.0 mi Calm Calm - N/A   Clear
7:15 AM 23.0 °F - 15.8 °F 74% 29.85 in 10.0 mi Calm Calm - N/A   Clear
7:35 AM 24.8 °F 20.5 °F 17.6 °F 74% 29.85 in 10.0 mi SSW 3.5 mph - N/A   Clear
7:55 AM 28.4 °F - 19.4 °F 69% 29.86 in 10.0 mi Calm Calm - N/A   Clear
8:15 AM 32.0 °F 28.7 °F 19.4 °F 60% 29.86 in 10.0 mi South 3.5 mph - N/A   Clear
8:35 AM 33.8 °F 30.8 °F 15.8 °F 48% 29.86 in 10.0 mi SSE 3.5 mph - N/A   Clear
8:55 AM 33.8 °F 28.6 °F 14.0 °F 44% 29.86 in 10.0 mi SSE 5.8 mph - N/A   Clear
9:15 AM 35.6 °F 32.8 °F 14.0 °F 41% 29.87 in 10.0 mi SE 3.5 mph - N/A   Clear
9:35 AM 39.2 °F 37.0 °F 14.0 °F 36% 29.86 in 10.0 mi SSE 3.5 mph - N/A   Clear
9:55 AM 39.2 °F 37.0 °F 12.2 °F 33% 29.86 in 10.0 mi SSE 3.5 mph - N/A   Clear
10:15 AM 42.8 °F 38.0 °F 15.8 °F 34% 29.86 in 10.0 mi SSW 8.1 mph - N/A   Clear
10:35 AM 44.6 °F 39.7 °F 17.6 °F 34% 29.86 in 10.0 mi SW 9.2 mph - N/A   Clear
10:55 AM 46.4 °F 40.1 °F 19.4 °F 34% 29.85 in 10.0 mi SW 15.0 mph - N/A   Clear
11:15 AM 46.4 °F 40.7 °F 19.4 °F 34% 29.84 in 10.0 mi WSW 12.7 mph - N/A   Clear
11:35 AM 48.2 °F - 19.4 °F 32% 29.84 in 10.0 mi West 10.4 mph 19.6 mph N/A   Clear
11:55 AM 48.2 °F - 19.4 °F 32% 29.83 in 10.0 mi WSW 10.4 mph 17.3 mph N/A   Clear
12:15 PM 50.0 °F - 17.6 °F 28% 29.82 in 10.0 mi WSW 13.8 mph 20.7 mph N/A   Clear
12:35 PM 51.8 °F - 17.6 °F 26% 29.81 in 10.0 mi West 10.4 mph 18.4 mph N/A   Clear
12:55 PM 50.0 °F - 17.6 °F 28% 29.80 in 10.0 mi West 8.1 mph 17.3 mph N/A   Clear
1:15 PM 51.8 °F - 17.6 °F 26% 29.79 in 10.0 mi WSW 10.4 mph 17.3 mph N/A   Clear
1:35 PM 53.6 °F - 17.6 °F 24% 29.78 in 10.0 mi West 9.2 mph - N/A   Clear
1:55 PM 53.6 °F - 17.6 °F 24% 29.78 in 10.0 mi WNW 6.9 mph 17.3 mph N/A   Clear
2:15 PM 53.6 °F - 17.6 °F 24% 29.78 in 10.0 mi WNW 10.4 mph 18.4 mph N/A   Clear
2:35 PM 53.6 °F - 17.6 °F 24% 29.77 in 10.0 mi West 8.1 mph 19.6 mph N/A   Clear
2:55 PM 55.4 °F - 17.6 °F 23% 29.77 in 10.0 mi WNW 5.8 mph 16.1 mph N/A   Clear
3:15 PM 55.4 °F - 15.8 °F 21% 29.78 in 10.0 mi WNW 9.2 mph - N/A   Clear
3:35 PM 55.4 °F - 15.8 °F 21% 29.78 in 10.0 mi WNW 8.1 mph 18.4 mph N/A   Clear
3:55 PM 55.4 °F - 15.8 °F 21% 29.78 in 10.0 mi WSW 12.7 mph 18.4 mph N/A   Clear
4:15 PM 55.4 °F - 15.8 °F 21% 29.78 in 10.0 mi West 4.6 mph 16.1 mph N/A   Clear
4:35 PM 55.4 °F - 15.8 °F 21% 29.79 in 10.0 mi West 5.8 mph 16.1 mph N/A   Clear
4:55 PM 53.6 °F - 14.0 °F 21% 29.79 in 10.0 mi West 10.4 mph - N/A   Clear
5:15 PM 53.6 °F - 15.8 °F 22% 29.80 in 10.0 mi West 10.4 mph - N/A   Clear
5:35 PM 53.6 °F - 14.0 °F 21% 29.81 in 10.0 mi West 8.1 mph - N/A   Clear
5:55 PM 51.8 °F - 15.8 °F 24% 29.82 in 10.0 mi West 4.6 mph - N/A   Clear
6:15 PM 50.0 °F - 15.8 °F 26% 29.83 in 10.0 mi WNW 4.6 mph - N/A   Clear
6:35 PM 48.2 °F - 15.8 °F 27% 29.84 in 10.0 mi Calm Calm - N/A   Clear
6:55 PM 44.6 °F - 15.8 °F 31% 29.84 in 10.0 mi Calm Calm - N/A   Clear
7:15 PM 42.8 °F - 17.6 °F 36% 29.85 in 10.0 mi Calm Calm - N/A   Clear
7:35 PM 41.0 °F 39.0 °F 19.4 °F 42% 29.86 in 10.0 mi SSW 3.5 mph - N/A   Clear
7:55 PM 39.2 °F 35.9 °F 19.4 °F 45% 29.87 in 10.0 mi SW 4.6 mph - N/A   Clear
8:15 PM 42.8 °F 41.1 °F 17.6 °F 36% 29.88 in 10.0 mi West 3.5 mph - N/A   Clear
8:35 PM 37.4 °F - 19.4 °F 48% 29.89 in 10.0 mi Calm Calm - N/A   Clear
8:55 PM 35.6 °F 32.8 °F 15.8 °F 44% 29.91 in 10.0 mi NW 3.5 mph - N/A   Clear
9:15 PM 35.6 °F - 17.6 °F 48% 29.92 in 10.0 mi Calm Calm - N/A   Clear
9:35 PM 35.6 °F - 15.8 °F 44% 29.93 in 10.0 mi Calm Calm - N/A   Clear
9:55 PM 35.6 °F - 15.8 °F 44% 29.94 in 10.0 mi Calm Calm - N/A   Clear
10:15 PM 35.6 °F - 12.2 °F 38% 29.95 in 10.0 mi Calm Calm - N/A   Clear
10:35 PM 37.4 °F - 8.6 °F 30% 29.96 in 10.0 mi Calm Calm - N/A   Clear
10:55 PM 37.4 °F - 6.8 °F 28% 29.97 in 10.0 mi Calm Calm - N/A   Clear
11:15 PM 33.8 °F - 6.8 °F 32% 29.97 in 10.0 mi Calm Calm - N/A   Clear
11:35 PM 32.0 °F - 6.8 °F 35% 29.98 in 10.0 mi Calm Calm - N/A   Clear
11:55 PM 33.8 °F 30.8 °F 6.8 °F 32% 29.99 in 10.0 mi NE 3.5 mph - N/A   Clear